Regional Weather Roundup
Issued by NWS Northern Indiana

Home | Current Version | Previous Version | Text Only | Print | Product List | Glossary Off
Versions: 1 2 3 4 5 6 7 8 9 10 11 12 13 14 15 16 17 18 19 20 21 22 23 24 25 26 27 28 29 30 31 32 33 34 35 36 37 38 39 40 41 42 43 44 45 46 47 48 49 50

998
ASUS43 KIWX 051400
RWRIWX

KIWX WEATHER ROUNDUP
NATIONAL WEATHER SERVICE NORTHERN INDIANA
1000 AM EDT THU MAY 05 2016

NOTE: "FAIR" INDICATES FEW OR NO CLOUDS BELOW 12,000 FEET WITH NO
SIGNIFICANT WEATHER AND/OR OBSTRUCTIONS TO VISIBILITY.

* THESE STATIONS ARE NOT UNDER NWS QUALITY CONTROL. THEY ALSO MAY NOT
  REPORT WEATHER SUCH AS PRECIPITATION OR FOG.

INZ001>027-051500-
NORTHERN INDIANA

CITY           SKY/WX    TMP DP  RH WIND       PRES   REMARKS
GARY*          CLOUDY    45  45 100 N17G29    29.99R
SOUTH BEND     CLOUDY    46  43  89 N12       29.93R
ELKHART*       CLOUDY    48  46  93 N6        29.92R
GOSHEN         CLOUDY    49  43  80 N10       29.90R
ANGOLA*          N/A     48  43  81 N9        29.88R
FORT WAYNE     PTSUNNY   50  44  80 N16       29.87R
PERU/GRISSOM   CLOUDY    48  48  99 N12G18    29.87R

$$
INZ028>050-051500-
CENTRAL INDIANA

CITY           SKY/WX    TMP DP  RH WIND       PRES   REMARKS
LAFAYETTE      CLOUDY    46  41  82 N14G21    29.92R
KOKOMO*        CLOUDY    46  43  87 N9        29.88R
MUNCIE*        CLOUDY    45  40  82 NW8       29.86R
INDIANAPOLIS   CLOUDY    46  39  76 N8        29.87R

$$
MIZ043>046-050>051-056>058-064>065-071>073-077>080-051500-
SOUTHWEST LOWER MICHIGAN

CITY           SKY/WX    TMP DP  RH WIND       PRES   REMARKS
BATTLE CREEK   PTSUNNY   50  44  80 N9        29.91R
BENTON HARBOR  CLOUDY    45  40  82 VRB7      29.95R
COLDWATER*     MOSUNNY   49  45  85 N13       29.89R
HILLSDALE*     SUNNY     50  43  74 N12       29.87R
HOLLAND        SUNNY    N/A N/A N/A NE6       29.96R
GRAND RAPIDS   MOSUNNY   53  44  71 N7        29.94R
KALAMAZOO      MOSUNNY   50  43  77 N12       29.92R
STURGIS*       CLOUDY    47  43  85 N12G24    29.89R
THREE RIVERS*  PTSUNNY   49  43  81 N6        29.91R

$$
OHZ001>008-015>018-024>025-051500-
NORTHWEST OHIO

CITY           SKY/WX    TMP DP  RH WIND       PRES   REMARKS
DEFIANCE       CLOUDY    54  44  69 N13       29.85R
FINDLAY        CLOUDY    50  43  77 N13       29.81R
TOLEDO EXPRESS SUNNY     54  44  69 N12       29.83R
TOLEDO METCALF CLOUDY    54  43  66 N13G22    29.84R
LIMA           CLOUDY    46  44  93 N6        29.82R FOG

$$
AND FOR LAKE MICHIGAN COASTAL AND OPEN LAKE BUOY OBSERVATIONS

STATION/POSITION TEMP    WIND        PRES    VSBY  WAVE
                 AIR SEA DIR/SP/G                  HT/PER
                 (F)     (DEG/KT/KT) (MB)    (MI)  (FT/S)
CALUMET HARBOR    42     330/ 16/ 21 1014.4R
MICHIGAN CITY     41     350/ 20/ 22   N/A
BURNS HARBOR      42     360/ 18/ 22 1014.9R
SAINT JOSEPH      44     350/ 13/ 16 1013.5R
SOUTH LAKE BUOY   40 40   20/ 17/ 21 1014.2          6/ 6
4 MI NW BRIDGMAN  43 46                N/A           5/ 6

$$
&&




USA.gov is the U.S. government's official web portal to all federal, state and local government web resources and services.